Time,TemperatureF,DewpointF,PressureIn,WindDirection,WindDirectionDegrees,WindSpeedMPH,WindSpeedGustMPH,Humidity,HourlyPrecipIn,Conditions,Clouds,dailyrainin,SoftwareType,DateUTC
2013-03-16 00:03:00,53.6,42.0,29.66,SE,142,1.0,4.0,65,0.00,,,0.00,weatherlink.com 1.10,2013-03-16 04:03:00,
2013-03-16 00:18:00,53.6,42.0,29.66,ESE,104,0.0,2.0,65,0.00,,,0.00,weatherlink.com 1.10,2013-03-16 04:18:00,
2013-03-16 00:33:00,51.9,42.0,29.67,NE,52,1.0,4.0,68,0.00,,,0.00,weatherlink.com 1.10,2013-03-16 04:33:00,
2013-03-16 00:49:00,51.5,42.0,29.67,NNW,348,2.0,2.0,69,0.00,,,0.00,weatherlink.com 1.10,2013-03-16 04:49:00,
2013-03-16 01:04:00,51.2,41.0,29.66,SSW,207,2.0,2.0,69,0.00,,,0.00,weatherlink.com 1.10,2013-03-16 05:04:00,
2013-03-16 01:19:00,51.2,42.0,29.66,WSW,238,0.0,2.0,70,0.00,,,0.00,weatherlink.com 1.10,2013-03-16 05:19:00,
2013-03-16 01:34:00,50.9,41.0,29.65,SSW,210,0.0,3.0,70,0.00,,,0.00,weatherlink.com 1.10,2013-03-16 05:34:00,
2013-03-16 01:49:00,50.6,41.0,29.65,SSW,210,0.0,1.0,71,0.00,,,0.00,weatherlink.com 1.10,2013-03-16 05:49:00,
2013-03-16 02:04:00,50.2,41.0,29.64,SSW,210,0.0,1.0,71,0.00,,,0.00,weatherlink.com 1.10,2013-03-16 06:04:00,
2013-03-16 02:19:00,49.8,41.0,29.64,SSW,210,0.0,1.0,72,0.00,,,0.00,weatherlink.com 1.10,2013-03-16 06:19:00,
2013-03-16 02:34:00,49.9,41.0,29.64,SSW,210,0.0,1.0,72,0.00,,,0.00,weatherlink.com 1.10,2013-03-16 06:34:00,
2013-03-16 02:49:00,49.4,41.0,29.63,ESE,108,0.0,0.0,73,0.00,,,0.00,weatherlink.com 1.10,2013-03-16 06:49:00,
2013-03-16 03:04:00,49.2,41.0,29.62,East,87,2.0,2.0,74,0.00,,,0.00,weatherlink.com 1.10,2013-03-16 07:04:00,
2013-03-16 03:19:00,50.7,44.0,29.62,East,86,0.0,2.0,78,0.00,,,0.00,weatherlink.com 1.10,2013-03-16 07:19:00,
2013-03-16 03:34:00,53.9,48.0,29.62,West,260,0.0,3.0,79,0.00,,,0.00,weatherlink.com 1.10,2013-03-16 07:34:00,
2013-03-16 03:49:00,55.4,49.0,29.61,ENE,58,2.0,3.0,78,0.00,,,0.00,weatherlink.com 1.10,2013-03-16 07:49:00,
2013-03-16 04:04:00,56.8,49.0,29.61,NE,41,2.0,4.0,76,0.00,,,0.00,weatherlink.com 1.10,2013-03-16 08:04:00,
2013-03-16 04:19:00,57.5,50.0,29.60,NE,45,1.0,6.0,75,0.00,,,0.00,weatherlink.com 1.10,2013-03-16 08:19:00,
2013-03-16 04:34:00,57.8,50.0,29.60,SSW,195,0.0,5.0,74,0.00,,,0.00,weatherlink.com 1.10,2013-03-16 08:34:00,
2013-03-16 04:49:00,58.1,49.0,29.59,ENE,66,3.0,5.0,73,0.00,,,0.00,weatherlink.com 1.10,2013-03-16 08:49:00,
2013-03-16 05:04:00,58.8,50.0,29.59,NW,325,4.0,9.0,72,0.00,,,0.00,weatherlink.com 1.10,2013-03-16 09:04:00,
2013-03-16 05:19:00,59.2,50.0,29.59,West,273,0.0,7.0,71,0.00,,,0.00,weatherlink.com 1.10,2013-03-16 09:19:00,
2013-03-16 05:34:00,59.6,50.0,29.59,WNW,291,2.0,6.0,71,0.00,,,0.00,weatherlink.com 1.10,2013-03-16 09:34:00,
2013-03-16 05:50:00,59.5,50.0,29.59,North,355,4.0,7.0,71,0.00,,,0.00,weatherlink.com 1.10,2013-03-16 09:50:00,
2013-03-16 06:04:00,59.5,50.0,29.60,WNW,302,9.0,9.0,72,0.00,,,0.00,weatherlink.com 1.10,2013-03-16 10:04:00,
2013-03-16 06:19:00,59.2,50.0,29.60,NNE,22,4.0,9.0,72,0.00,,,0.00,weatherlink.com 1.10,2013-03-16 10:19:00,
2013-03-16 06:34:00,59.0,50.0,29.60,WNW,299,2.0,9.0,72,0.00,,,0.00,weatherlink.com 1.10,2013-03-16 10:34:00,
2013-03-16 06:49:00,59.2,50.0,29.60,North,357,1.0,7.0,72,0.00,,,0.00,weatherlink.com 1.10,2013-03-16 10:49:00,
2013-03-16 07:04:00,59.3,50.0,29.59,ENE,66,2.0,7.0,71,0.00,,,0.00,weatherlink.com 1.10,2013-03-16 11:04:00,
2013-03-16 07:19:00,59.2,50.0,29.59,NNW,328,4.0,6.0,71,0.00,,,0.00,weatherlink.com 1.10,2013-03-16 11:19:00,
2013-03-16 07:34:00,58.9,49.0,29.60,NW,325,1.0,6.0,71,0.00,,,0.00,weatherlink.com 1.10,2013-03-16 11:34:00,
2013-03-16 07:49:00,58.5,49.0,29.60,NW,322,1.0,8.0,72,0.00,,,0.00,weatherlink.com 1.10,2013-03-16 11:49:00,
2013-03-16 08:04:00,57.9,49.0,29.61,WSW,256,2.0,6.0,73,0.00,,,0.00,weatherlink.com 1.10,2013-03-16 12:04:00,
2013-03-16 08:19:00,57.5,49.0,29.61,West,278,0.0,5.0,73,0.00,,,0.00,weatherlink.com 1.10,2013-03-16 12:19:00,
2013-03-16 08:34:00,57.7,49.0,29.61,WSW,255,2.0,7.0,73,0.00,,,0.00,weatherlink.com 1.10,2013-03-16 12:34:00,
2013-03-16 08:49:00,57.7,49.0,29.61,NW,307,1.0,7.0,73,0.00,,,0.00,weatherlink.com 1.10,2013-03-16 12:49:00,
2013-03-16 09:04:00,57.9,49.0,29.62,WNW,294,1.0,7.0,73,0.00,,,0.00,weatherlink.com 1.10,2013-03-16 13:04:00,
2013-03-16 09:19:00,58.7,50.0,29.62,NW,307,5.0,9.0,72,0.00,,,0.00,weatherlink.com 1.10,2013-03-16 13:19:00,
2013-03-16 09:34:00,59.6,50.0,29.62,NW,304,4.0,7.0,70,0.00,,,0.00,weatherlink.com 1.10,2013-03-16 13:34:00,
2013-03-16 09:49:00,59.8,50.0,29.63,North,8,12.0,12.0,69,0.00,,,0.00,weatherlink.com 1.10,2013-03-16 13:49:00,
2013-03-16 10:04:00,59.4,50.0,29.64,NE,44,6.0,6.0,70,0.00,,,0.00,weatherlink.com 1.10,2013-03-16 14:04:00,
2013-03-16 10:19:00,59.9,49.0,29.65,WNW,294,5.0,11.0,68,0.00,,,0.00,weatherlink.com 1.10,2013-03-16 14:19:00,
2013-03-16 10:34:00,59.7,50.0,29.66,West,262,4.0,11.0,70,0.00,,,0.00,weatherlink.com 1.10,2013-03-16 14:34:00,
2013-03-16 10:49:00,58.1,48.0,29.68,NNW,334,5.0,15.0,68,0.00,,,0.00,weatherlink.com 1.10,2013-03-16 14:49:00,
2013-03-16 11:05:00,57.6,47.0,29.68,NNE,25,3.0,6.0,69,0.00,,,0.00,weatherlink.com 1.10,2013-03-16 15:05:00,
2013-03-16 11:20:00,57.7,47.0,29.69,NNW,343,6.0,8.0,68,0.00,,,0.00,weatherlink.com 1.10,2013-03-16 15:20:00,
2013-03-16 11:35:00,56.6,45.0,29.70,NNW,333,3.0,9.0,66,0.00,,,0.00,weatherlink.com 1.10,2013-03-16 15:35:00,
2013-03-16 11:50:00,56.1,45.0,29.71,WNW,283,3.0,12.0,67,0.00,,,0.00,weatherlink.com 1.10,2013-03-16 15:50:00,
2013-03-16 12:05:00,56.6,46.0,29.72,NNW,330,3.0,10.0,67,0.00,,,0.00,weatherlink.com 1.10,2013-03-16 16:05:00,
2013-03-16 12:20:00,56.8,45.0,29.73,NW,319,2.0,10.0,65,0.00,,,0.00,weatherlink.com 1.10,2013-03-16 16:20:00,
2013-03-16 12:35:00,56.6,44.0,29.74,WNW,294,3.0,8.0,63,0.00,,,0.00,weatherlink.com 1.10,2013-03-16 16:35:00,
2013-03-16 12:50:00,55.7,44.0,29.75,NW,305,3.0,9.0,64,0.00,,,0.00,weatherlink.com 1.10,2013-03-16 16:50:00,
2013-03-16 13:05:00,55.9,44.0,29.75,NNE,29,5.0,8.0,65,0.00,,,0.00,weatherlink.com 1.10,2013-03-16 17:05:00,
2013-03-16 13:20:00,55.1,43.0,29.77,NW,322,6.0,11.0,64,0.00,,,0.00,weatherlink.com 1.10,2013-03-16 17:20:00,
2013-03-16 13:35:00,53.5,43.0,29.78,NNW,337,6.0,10.0,67,0.00,,,0.00,weatherlink.com 1.10,2013-03-16 17:35:00,
2013-03-16 13:50:00,53.6,42.0,29.79,NW,319,6.0,8.0,66,0.00,,,0.00,weatherlink.com 1.10,2013-03-16 17:50:00,
2013-03-16 14:05:00,54.4,43.0,29.80,NW,322,2.0,7.0,66,0.00,,,0.00,weatherlink.com 1.10,2013-03-16 18:05:00,
2013-03-16 14:20:00,54.3,42.0,29.80,WNW,296,3.0,8.0,64,0.00,,,0.00,weatherlink.com 1.10,2013-03-16 18:20:00,
2013-03-16 14:35:00,54.5,42.0,29.80,NW,318,3.0,9.0,64,0.00,,,0.00,weatherlink.com 1.10,2013-03-16 18:35:00,
2013-03-16 14:50:00,55.1,43.0,29.81,WNW,294,1.0,7.0,63,0.00,,,0.00,weatherlink.com 1.10,2013-03-16 18:50:00,
2013-03-16 15:05:00,52.9,41.0,29.81,West,278,2.0,8.0,65,0.00,,,0.00,weatherlink.com 1.10,2013-03-16 19:05:00,
2013-03-16 15:20:00,52.4,42.0,29.81,NW,318,2.0,8.0,67,0.00,,,0.00,weatherlink.com 1.10,2013-03-16 19:20:00,
2013-03-16 15:35:00,51.3,41.0,29.82,West,274,2.0,7.0,67,0.00,,,0.00,weatherlink.com 1.10,2013-03-16 19:35:00,
2013-03-16 15:50:00,50.8,41.0,29.83,NW,311,3.0,9.0,68,0.00,,,0.00,weatherlink.com 1.10,2013-03-16 19:50:00,
2013-03-16 16:05:00,49.1,40.0,29.83,NW,312,1.0,7.0,70,0.00,,,0.00,weatherlink.com 1.10,2013-03-16 20:05:00,
2013-03-16 16:20:00,48.5,39.0,29.84,NW,325,2.0,8.0,71,0.00,,,0.00,weatherlink.com 1.10,2013-03-16 20:20:00,
2013-03-16 16:35:00,48.3,40.0,29.85,WSW,250,3.0,7.0,72,0.00,,,0.00,weatherlink.com 1.10,2013-03-16 20:35:00,
2013-03-16 16:50:00,47.2,39.0,29.85,NNW,333,1.0,7.0,73,0.00,,,0.00,weatherlink.com 1.10,2013-03-16 20:50:00,
2013-03-16 17:07:00,46.2,39.0,29.87,NW,319,5.0,9.0,75,0.00,,,0.00,weatherlink.com 1.10,2013-03-16 21:07:00,
2013-03-16 17:20:00,45.7,39.0,29.88,NW,311,4.0,9.0,76,0.00,,,0.00,weatherlink.com 1.10,2013-03-16 21:20:00,
2013-03-16 17:35:00,45.0,38.0,29.88,West,278,1.0,8.0,76,0.00,,,0.00,weatherlink.com 1.10,2013-03-16 21:35:00,
2013-03-16 17:51:00,44.6,38.0,29.87,WNW,293,0.0,7.0,78,0.00,,,0.00,weatherlink.com 1.10,2013-03-16 21:51:00,
2013-03-16 18:06:00,44.4,38.0,29.88,NW,314,4.0,10.0,77,0.00,,,0.00,weatherlink.com 1.10,2013-03-16 22:06:00,
2013-03-16 18:21:00,43.7,37.0,29.88,West,269,3.0,7.0,78,0.00,,,0.00,weatherlink.com 1.10,2013-03-16 22:21:00,
2013-03-16 18:36:00,43.4,37.0,29.87,NE,49,1.0,8.0,78,0.00,,,0.00,weatherlink.com 1.10,2013-03-16 22:36:00,
2013-03-16 18:51:00,42.2,36.0,29.87,ENE,71,0.0,9.0,79,0.00,,,0.00,weatherlink.com 1.10,2013-03-16 22:51:00,
2013-03-16 19:21:00,40.3,35.0,29.89,NE,39,1.0,9.0,81,0.00,,,0.00,weatherlink.com 1.10,2013-03-16 23:21:00,
2013-03-16 19:51:00,40.1,34.0,29.91,NW,309,2.0,3.0,80,0.00,,,0.00,weatherlink.com 1.10,2013-03-16 23:51:00,
2013-03-16 20:06:00,40.0,34.0,29.91,North,8,2.0,6.0,80,0.00,,,0.00,weatherlink.com 1.10,2013-03-17 00:06:00,
2013-03-16 20:21:00,39.9,34.0,29.93,NW,326,0.0,3.0,80,0.00,,,0.00,weatherlink.com 1.10,2013-03-17 00:21:00,
2013-03-16 20:36:00,39.9,34.0,29.94,WNW,302,0.0,3.0,80,0.00,,,0.00,weatherlink.com 1.10,2013-03-17 00:36:00,
2013-03-16 20:51:00,39.9,34.0,29.96,NNW,335,0.0,4.0,80,0.00,,,0.00,weatherlink.com 1.10,2013-03-17 00:51:00,
2013-03-16 21:06:00,39.6,34.0,29.97,NNW,346,3.0,5.0,80,0.00,,,0.00,weatherlink.com 1.10,2013-03-17 01:06:00,
2013-03-16 21:21:00,39.4,34.0,29.96,NNW,335,2.0,2.0,80,0.00,,,0.00,weatherlink.com 1.10,2013-03-17 01:21:00,
2013-03-16 21:36:00,39.1,33.0,29.96,NNE,15,1.0,4.0,80,0.00,,,0.00,weatherlink.com 1.10,2013-03-17 01:36:00,
2013-03-16 21:51:00,38.9,33.0,29.96,East,96,0.0,3.0,80,0.00,,,0.00,weatherlink.com 1.10,2013-03-17 01:51:00,
2013-03-16 22:06:00,38.7,33.0,29.96,ESE,123,0.0,3.0,80,0.00,,,0.00,weatherlink.com 1.10,2013-03-17 02:06:00,
2013-03-16 22:21:00,38.5,33.0,29.96,NNE,20,0.0,5.0,81,0.00,,,0.00,weatherlink.com 1.10,2013-03-17 02:21:00,
2013-03-16 22:36:00,38.1,33.0,29.97,NNE,32,0.0,6.0,81,0.00,,,0.00,weatherlink.com 1.10,2013-03-17 02:36:00,
2013-03-16 23:06:00,37.5,32.0,29.98,NNE,25,2.0,4.0,80,0.00,,,0.00,weatherlink.com 1.10,2013-03-17 03:06:00,
2013-03-16 23:21:00,37.3,32.0,29.98,NE,53,0.0,4.0,81,0.00,,,0.00,weatherlink.com 1.10,2013-03-17 03:21:00,
2013-03-16 23:36:00,37.0,32.0,29.98,NE,50,2.0,6.0,81,0.00,,,0.00,weatherlink.com 1.10,2013-03-17 03:36:00,
2013-03-16 23:51:00,36.7,31.0,29.97,East,100,2.0,6.0,80,0.00,,,0.00,weatherlink.com 1.10,2013-03-17 03:51:00,